Wind_Speed
19 23 25 26 25 22 20 19 19 19 20 21 23 25 27 28 26 25 25 25 25 24 23 22 21 21 21 20 21 23 24 25 25 26 27 28 28 29 30 30 30 31 31 31 31 32 32 33 34 34 34 35 35 35 36 36 36 36 36 36 36 36 35 35 35 35 34 33 33
1 7 14 19 21 19 17 16 15 16 17 18 19 21 22 24 25 25 25 25 23 22 22 22 21 20 20 20 21 22 24 25 25 26 26 27 28 28 29 29 30 30 30 30 30 30 31 32 32 33 33 34 35 35 35 36 35 34 34 35 36 36 35 35 35 35 34 33 31
11 5 2 9 13 15 14 13 12 12 13 14 15 16 17 19 21 22 23 22 20 20 20 20 20 19 19 19 21 22 24 26 26 27 27 28 28 29 29 30 31 31 31 31 30 30 31 31 32 32 33 33 34 33 33 34 33 32 32 32 34 34 33 32 32 32 32 31 29
13 9 4 4 8 10 10 10 10 10 10 11 12 13 14 15 17 18 18 17 17 17 18 19 19 18 18 18 18 20 22 23 24 26 27 28 28 29 29 30 31 31 31 31 31 31 31 31 31 32 32 33 32 31 31 31 31 31 31 31 32 32 31 29 29 29 29 30 30
20 17 12 6 5 6 7 7 8 8 8 10 11 11 12 13 13 14 13 12 13 14 15 16 17 18 18 19 19 18 19 19 21 22 24 25 26 27 28 28 29 29 30 30 30 30 30 30 30 31 31 31 31 31 30 31 31 32 32 32 33 32 32 31 30 29 30 31 32
25 25 23 18 11 6 5 6 7 7 8 9 10 10 11 11 11 11 11 11 11 12 14 15 16 17 19 20 21 20 18 18 19 20 22 23 23 24 25 25 26 27 28 28 29 29 30 31 31 31 31 31 31 31 32 32 33 33 34 34 35 35 34 34 33 32 32 33 34
26 27 27 26 23 18 13 10 8 8 7 6 6 6 7 8 9 9 9 9 10 11 13 15 17 18 19 20 21 21 20 21 21 21 21 21 21 21 22 24 25 26 26 27 27 28 29 30 31 32 32 32 32 33 33 33 33 34 35 35 36 35 35 35 34 34 34 34 35
26 27 27 26 25 24 23 20 18 16 14 12 10 7 4 4 6 7 8 9 9 10 11 12 14 15 16 17 18 20 21 22 22 22 21 20 20 21 21 23 24 26 26 25 25 25 26 27 29 31 32 32 31 31 31 31 31 32 33 33 33 34 34 34 34 34 34 35 35
25 25 25 24 23 23 22 21 20 19 18 16 14 12 8 5 2 3 5 6 7 7 8 8 9 11 12 14 15 16 18 19 19 18 18 18 19 19 21 23 26 27 26 24 23 22 23 24 25 26 27 28 28 27 26 26 28 29 30 30 30 31 31 32 32 33 34 35 35
23 22 21 20 20 19 19 19 19 19 18 17 15 14 12 9 6 3 2 2 3 4 5 6 7 9 10 11 11 12 12 13 13 13 14 15 17 19 21 23 24 24 24 22 21 20 19 19 19 20 20 21 22 23 23 24 25 26 27 28 29 30 31 31 32 32 33 34 34
21 20 18 17 16 15 15 15 16 16 16 15 14 13 12 10 9 8 6 5 5 5 5 5 6 8 9 9 9 8 8 9 10 11 12 13 15 16 17 17 16 15 14 15 14 13 13 13 13 14 15 16 17 18 20 20 22 24 25 27 28 29 30 31 32 32 32 32 33
21 20 18 17 16 15 15 14 14 13 13 12 11 10 10 9 9 8 8 8 8 7 6 6 6 6 7 8 8 7 7 8 10 11 13 13 13 13 13 11 9 9 9 10 10 11 11 12 12 13 14 15 16 17 17 18 19 20 21 22 23 24 26 28 29 30 30 30 30
21 21 20 19 18 17 17 16 15 14 12 10 9 9 8 8 8 8 9 11 10 9 8 7 6 6 7 8 8 9 10 11 12 12 13 12 12 11 11 10 10 10 11 12 13 13 14 14 15 16 16 17 17 18 18 18 19 20 20 19 18 18 19 21 22 23 24 25 24
22 22 21 20 20 19 19 19 18 17 15 13 11 10 9 8 8 8 9 11 12 11 10 9 8 8 8 9 10 12 13 14 14 13 12 12 12 11 11 11 12 14 15 16 16 15 16 16 17 17 18 18 18 19 19 20 21 22 22 19 16 15 15 15 16 16 18 19 19
24 23 22 22 21 21 20 20 19 19 18 17 15 12 11 10 9 9 10 10 11 11 11 10 10 10 10 10 10 11 12 13 13 12 12 11 11 10 11 12 14 16 18 18 18 17 16 16 16 17 17 17 18 18 19 20 23 24 23 21 18 16 15 15 15 16 17 17 18
26 25 24 23 23 22 21 20 19 19 19 19 17 15 13 12 11 11 11 11 11 11 10 10 10 11 11 10 10 10 11 11 12 13 13 13 12 11 12 14 16 18 19 19 18 18 17 17 16 16 16 16 16 16 17 19 22 24 24 21 19 17 16 16 17 18 18 19 20
29 28 26 25 24 23 22 21 19 19 19 18 17 17 16 15 14 13 13 13 12 11 11 10 10 10 10 10 10 10 11 13 14 16 17 17 16 16 15 16 17 18 19 19 19 19 18 18 17 16 16 15 15 15 16 18 21 23 23 22 21 19 19 18 18 19 20 20 21
29 29 28 27 26 25 23 22 21 20 19 18 18 17 16 16 15 15 14 14 13 13 12 11 11 10 10 9 9 10 11 13 16 18 19 20 20 19 19 18 18 19 19 20 20 19 19 19 18 18 17 16 15 16 16 17 19 20 22 22 22 22 21 21 20 21 21 22 22
28 28 28 28 27 26 25 23 22 21 19 18 17 17 16 16 15 15 14 14 14 13 13 12 12 11 11 10 10 10 11 12 13 16 18 19 20 21 20 20 20 20 20 21 21 21 20 20 19 19 18 17 17 17 17 18 18 19 20 21 21 22 22 22 22 22 23 23 24
26 27 27 27 27 27 26 25 23 22 20 18 17 17 16 16 15 15 15 15 14 13 13 12 12 12 12 12 12 12 12 12 12 13 15 16 18 19 20 21 22 21 21 22 22 22 22 21 21 20 20 19 19 19 18 18 19 19 20 20 21 22 22 22 23 23 24 24 25
26 26 26 26 27 26 26 25 24 22 21 20 19 18 17 16 16 16 15 15 14 13 13 12 12 12 12 12 13 13 13 14 14 14 14 15 15 17 18 20 21 22 22 22 23 23 23 23 23 22 21 21 21 20 20 20 20 20 20 21 22 22 23 24 24 25 25 25 26
26 26 26 26 26 25 25 24 23 23 22 21 20 19 18 17 17 17 16 15 14 14 14 13 13 13 13 13 13 14 14 14 14 14 15 15 15 15 16 16 18 20 22 23 23 24 24 24 24 24 23 23 22 22 21 21 21 21 21 22 23 24 25 25 26 26 26 26 26
27 27 27 26 26 25 24 24 23 23 23 22 21 20 20 19 18 18 17 16 16 15 15 15 14 14 14 14 14 15 15 15 15 14 14 15 15 16 15 15 16 17 19 21 22 23 24 24 25 25 25 25 24 23 23 22 22 22 23 23 24 25 26 26 27 27 27 27 27
28 28 28 27 27 26 25 25 24 24 24 23 22 21 20 19 19 19 18 18 18 17 17 16 15 15 14 14 14 15 16 17 17 16 16 15 15 15 15 16 16 16 17 19 20 21 22 24 25 26 26 26 25 25 24 24 23 23 23 24 24 25 26 27 27 27 27 27 27
28 28 29 28 28 28 27 26 26 25 24 23 22 21 21 20 20 20 20 20 19 19 18 17 17 16 15 15 15 16 16 17 18 18 18 18 16 15 15 15 15 16 16 17 18 19 20 22 23 25 25 26 26 26 26 26 25 25 24 24 25 25 26 27 28 28 28 27 27
27 28 28 29 29 29 28 28 27 25 24 23 22 22 21 20 20 20 20 20 20 20 19 19 18 18 17 17 17 17 18 18 19 19 20 20 19 18 17 16 15 15 15 15 16 17 18 20 21 23 24 25 26 26 26 27 27 27 26 26 26 26 27 27 28 28 28 28 27
26 27 27 28 28 28 28 28 27 26 25 24 23 22 21 19 19 19 19 19 20 20 20 20 19 19 19 19 19 19 20 20 20 20 20 20 20 20 19 18 17 16 15 15 15 15 16 17 19 20 22 24 25 26 27 27 28 28 28 27 27 27 27 28 28 28 28 27 27
27 27 27 27 27 27 28 28 28 27 26 25 24 22 20 19 18 18 18 18 19 19 19 19 19 19 18 19 19 20 20 20 21 21 21 21 21 21 20 20 19 18 17 16 16 16 16 16 17 18 19 22 24 26 27 28 28 28 28 28 28 28 28 28 28 28 28 27 27
28 28 28 27 27 27 27 27 27 26 25 24 23 22 20 19 19 18 18 19 19 19 19 18 18 18 18 18 19 19 20 20 21 21 22 22 22 22 22 22 21 21 20 19 18 17 17 17 17 18 18 19 21 24 25 27 27 28 28 28 28 28 28 29 28 28 27 27 27
30 29 29 28 28 28 27 27 26 25 24 23 23 21 20 19 19 19 19 19 19 19 19 18 18 18 18 18 18 19 19 20 20 21 21 22 22 23 23 23 23 22 22 21 20 18 18 18 18 19 19 19 19 21 23 25 26 27 28 28 28 28 28 28 28 28 27 27 26
30 30 30 30 29 28 28 27 26 25 24 23 22 21 20 19 19 19 18 19 19 19 19 19 19 19 19 19 19 19 19 20 20 20 20 21 22 23 24 24 24 23 22 21 21 20 19 19 18 19 19 19 19 20 21 23 25 26 27 28 28 28 28 28 28 27 27 27 27
29 30 30 30 30 29 29 28 28 27 25 24 24 22 21 20 19 19 19 18 18 19 19 19 19 20 20 20 20 20 20 20 20 20 20 21 22 23 24 24 24 23 22 22 21 21 21 20 19 19 19 19 20 20 21 21 23 24 26 27 28 28 28 28 27 27 27 27 27
28 28 29 29 29 29 29 29 28 28 27 26 25 24 24 23 22 22 21 20 19 19 19 19 20 20 21 21 21 21 21 20 20 21 21 22 23 23 24 24 24 24 23 22 22 22 22 21 21 20 19 19 19 20 21 21 22 23 24 25 26 27 28 28 28 27 27 28 28
27 27 27 27 27 27 27 27 28 27 27 27 26 26 25 25 25 24 23 22 21 20 19 19 19 20 20 21 21 21 22 22 21 21 22 23 23 24 24 24 24 24 24 23 23 23 23 23 22 21 20 19 19 19 20 21 22 23 24 25 26 27 27 28 28 28 28 28 28
26 26 26 26 25 25 25 26 26 26 25 26 26 26 26 26 25 25 24 23 22 21 20 20 20 20 20 20 20 21 21 22 22 23 23 23 23 24 24 25 25 25 24 24 23 23 23 23 23 22 21 20 20 20 21 21 22 23 24 25 25 26 27 28 28 28 28 28 28
25 25 25 25 24 24 24 24 25 24 24 24 24 25 25 25 25 24 23 23 22 21 22 21 21 21 21 21 21 20 21 22 23 23 23 23 23 24 25 25 26 26 25 25 24 24 24 23 23 23 22 22 22 22 22 23 23 23 24 24 25 25 26 27 28 28 28 28 28
24 24 24 24 23 23 23 23 24 23 23 23 23 24 24 25 24 24 23 23 23 23 23 23 22 22 22 22 22 22 22 22 23 24 24 24 23 24 24 25 27 27 27 26 25 24 24 24 23 23 23 23 23 23 23 23 23 23 24 24 25 25 25 26 27 27 28 28 28
24 24 23 23 23 23 23 23 23 22 23 23 23 24 24 24 24 24 23 23 23 24 25 25 24 23 23 23 23 24 24 24 24 24 24 24 23 23 24 25 27 28 28 27 26 25 25 24 24 23 23 23 23 23 23 23 23 23 24 24 25 25 25 25 26 26 27 28 28
24 24 24 23 23 23 23 23 23 22 22 23 23 24 24 24 23 23 23 23 23 24 25 25 24 24 24 24 24 25 26 26 25 24 23 24 24 24 24 25 27 28 28 27 26 26 25 24 24 23 23 23 23 23 22 22 23 23 24 24 25 25 26 26 26 26 27 27 28
24 24 24 24 24 24 24 24 24 24 24 24 24 25 24 24 23 23 23 24 23 23 23 23 23 23 23 23 24 25 26 27 26 24 24 25 25 25 25 26 27 28 28 27 26 25 25 24 24 23 23 23 23 23 22 22 22 23 24 24 24 24 25 25 25 26 26 26 27
24 24 24 25 25 25 25 25 25 25 26 26 26 26 26 25 25 25 26 25 25 23 22 21 22 22 23 23 23 24 25 26 26 25 25 26 26 25 25 25 26 28 28 28 26 26 25 24 24 23 23 23 23 23 23 22 22 22 23 23 23 23 23 23 24 25 25 26 26
Wind_Direction
231 232 233 232 231 229 228 227 228 228 227 225 225 224 221 217 211 204 198 196 193 191 190 192 195 198 201 203 206 208 209 211 212 214 215 217 218 219 219 219 220 220 220 221 222 222 222 223 224 226 227 228 229 229 228 227 226 225 224 223 223 222 222 221 220 219 218 218 217
101 232 232 228 226 225 223 220 221 222 222 222 222 221 218 214 210 207 203 201 198 193 189 189 190 193 195 199 203 206 208 210 212 214 216 218 220 222 223 224 225 226 226 226 226 225 225 225 225 226 227 228 228 227 226 226 226 225 224 223 223 223 222 221 220 219 218 218 219
53 53 210 220 222 224 223 220 217 213 210 211 211 210 209 208 208 208 209 210 210 206 201 196 193 191 191 193 198 202 206 208 211 213 215 218 220 222 224 225 227 227 228 228 227 227 226 226 226 226 225 225 224 223 223 224 225 225 225 225 225 224 223 222 222 222 223 224 226
54 53 68 183 207 219 228 231 225 216 207 203 202 202 203 206 209 213 217 220 221 220 219 218 215 211 206 204 205 206 208 209 210 212 214 217 219 220 222 224 225 226 227 227 227 227 227 227 227 226 225 224 224 226 228 228 229 230 231 231 230 230 230 230 230 231 232 233 233
51 50 55 86 154 190 209 218 216 207 197 192 193 196 201 207 212 217 221 223 224 224 224 224 226 226 226 226 226 226 224 221 220 220 221 223 223 223 224 225 226 228 229 230 231 231 232 232 232 232 232 233 235 237 237 238 238 239 239 240 240 240 241 242 244 244 242 240 238
47 47 51 59 74 103 144 169 173 171 169 173 178 185 193 201 208 213 218 222 224 223 221 219 219 220 223 225 229 233 235 233 231 232 233 235 235 235 235 235 236 236 237 237 237 238 238 239 240 242 244 245 245 245 245 245 245 246 246 247 247 248 248 249 251 251 250 247 246
42 42 45 49 54 60 66 79 95 104 108 115 134 160 181 193 200 205 213 221 228 230 228 223 219 216 217 219 222 227 230 230 232 233 236 238 240 242 242 242 243 242 242 241 242 243 245 246 246 248 249 249 249 249 249 249 249 249 249 249 250 250 250 251 252 253 253 251 252
44 42 41 42 45 48 51 55 59 61 62 62 64 72 104 162 189 206 219 227 232 235 235 232 229 226 225 226 227 228 230 231 232 234 236 240 243 245 247 247 248 247 247 247 248 249 251 252 251 250 248 248 248 249 251 252 251 249 249 249 249 249 249 249 250 251 253 254 255
46 44 42 40 40 41 43 46 50 51 52 52 52 53 58 75 137 213 231 236 240 241 240 239 241 243 245 246 246 245 244 243 244 245 245 246 248 250 253 254 253 253 252 252 252 252 252 253 252 251 250 249 249 251 254 257 256 253 251 251 251 251 250 249 249 252 254 256 258
48 47 46 44 42 41 42 44 46 48 49 49 48 47 48 49 46 28 341 299 290 278 263 252 248 248 251 253 255 255 254 254 255 256 256 253 252 253 255 255 255 254 253 252 251 251 251 252 254 256 258 259 260 262 264 265 264 262 260 259 257 256 254 253 253 255 257 258 259
53 53 53 52 51 50 48 47 48 49 50 49 46 43 39 36 29 19 7 351 336 323 306 282 260 250 245 243 245 247 249 252 255 257 258 256 254 253 252 251 251 252 252 252 252 252 253 254 257 261 265 268 270 272 272 272 270 268 266 264 262 259 258 257 256 257 259 259 260
56 57 57 57 57 57 57 56 54 53 52 51 47 42 35 28 20 9 355 341 330 323 317 307 285 264 249 240 236 237 241 246 248 249 249 249 248 247 245 244 246 250 255 259 261 261 260 258 258 260 262 264 267 269 271 272 271 270 269 269 267 264 261 259 259 258 258 258 258
54 55 56 55 55 55 54 53 51 49 47 47 44 39 32 27 20 7 352 341 331 324 320 318 308 290 270 257 251 250 249 247 243 241 239 240 241 241 241 241 243 248 253 258 262 263 262 260 258 257 258 259 260 262 266 269 270 269 269 270 270 268 265 263 261 259 258 257 256
51 51 52 52 52 51 49 47 44 41 39 38 35 30 25 20 14 5 356 349 342 334 326 319 314 305 293 278 267 259 252 245 239 236 237 241 245 247 247 246 246 248 252 255 259 261 261 260 257 256 255 255 257 260 264 268 269 267 265 263 264 266 267 267 266 264 262 261 262
47 47 48 48 48 47 45 42 39 37 35 34 30 26 20 14 6 359 355 354 351 345 335 322 311 304 297 287 271 256 246 240 238 239 242 246 249 253 255 256 256 257 257 258 260 260 259 258 256 254 253 254 256 261 266 269 269 265 260 256 257 259 263 266 268 268 267 267 267
44 44 44 44 44 43 41 38 35 34 33 32 30 27 23 17 8 1 358 357 355 352 346 335 321 308 297 285 271 256 245 242 246 250 253 254 255 257 261 263 265 265 264 263 260 257 255 253 251 250 251 253 259 265 271 273 270 264 259 256 257 259 262 264 266 266 267 267 267
41 40 40 40 40 39 37 35 33 31 30 29 28 27 25 21 15 10 7 3 358 354 352 348 342 331 315 296 281 269 260 258 262 264 265 265 264 265 266 268 270 270 268 264 258 254 250 249 248 248 250 254 261 269 274 277 273 268 265 265 266 267 268 269 267 266 267 268 268
38 37 37 37 36 35 34 32 31 29 27 26 25 24 23 20 17 15 12 8 3 358 353 348 346 344 339 327 310 295 284 277 274 274 273 273 273 271 270 271 272 272 270 266 261 256 252 250 249 249 252 257 264 270 274 276 276 275 275 276 276 277 276 276 273 271 270 270 271
34 33 33 32 32 31 31 30 28 26 25 23 21 19 18 17 14 13 12 11 8 3 357 350 343 339 336 333 326 317 308 300 293 287 284 282 280 278 276 276 276 275 272 270 267 264 261 259 257 257 258 261 266 270 273 275 277 279 280 281 281 281 281 280 279 278 277 276 276
31 30 28 27 27 27 27 27 26 25 23 20 18 16 14 12 10 9 9 8 7 4 0 355 349 342 334 327 322 318 313 309 306 302 297 291 287 284 283 283 282 280 276 274 273 272 270 269 267 267 267 268 269 271 272 273 275 277 279 281 281 281 282 282 282 282 281 280 278
28 26 24 23 22 22 22 23 23 23 23 21 19 17 14 11 9 8 6 4 1 360 359 358 355 350 342 334 326 319 313 307 305 302 299 295 291 288 287 287 286 284 281 278 276 275 274 274 274 274 273 273 272 271 271 270 270 271 273 275 277 278 279 280 280 279 278 278 277
25 23 22 20 20 19 19 19 20 21 21 21 20 18 17 15 13 11 7 4 0 359 357 356 354 351 347 341 335 328 321 313 307 301 297 294 292 289 287 287 287 285 282 279 276 274 273 274 275 276 276 274 272 270 269 267 266 266 267 269 271 272 273 274 274 274 274 274 274
23 22 21 20 20 19 18 18 18 18 18 18 17 17 17 16 15 13 11 9 7 4 1 357 353 350 346 342 338 334 330 326 319 312 305 300 296 292 287 285 285 285 283 280 277 273 271 271 273 275 275 274 272 270 268 266 264 264 264 265 267 267 268 269 269 269 270 270 271
22 22 22 21 21 21 20 19 18 18 17 15 14 13 13 14 13 12 11 11 10 8 5 1 357 352 348 344 342 340 338 336 333 328 322 316 309 302 293 287 283 282 282 282 280 277 274 272 272 272 272 272 271 271 270 268 266 265 264 264 265 266 266 267 267 267 267 268 268
22 22 22 22 22 22 21 21 20 18 17 14 12 11 11 11 11 10 9 9 8 7 5 3 0 357 353 349 347 344 342 341 339 336 332 328 323 317 309 300 291 284 282 282 284 283 281 278 275 273 272 271 270 270 271 270 269 269 267 267 266 266 266 265 265 265 265 265 266
21 21 21 21 21 21 21 20 19 18 17 15 13 12 10 9 8 7 6 6 5 4 3 2 0 359 356 352 349 347 344 342 339 338 335 332 329 326 322 316 307 297 289 285 286 288 288 285 282 279 276 274 272 270 270 269 270 270 269 269 267 266 264 263 262 263 263 264 264
19 18 18 18 18 19 19 18 17 17 16 16 14 12 9 7 5 4 3 2 1 360 359 358 357 356 354 351 349 346 344 342 340 338 336 334 331 329 326 322 317 309 300 290 285 283 285 287 287 286 283 279 276 273 271 269 269 268 267 267 265 264 262 260 259 260 261 262 264
16 15 15 15 16 16 16 15 15 15 14 14 13 11 8 5 2 0 358 357 356 356 355 353 352 351 349 347 345 343 342 341 340 338 336 334 332 330 327 324 319 313 307 299 288 280 277 278 281 282 283 282 279 276 272 269 268 266 265 264 263 261 260 258 258 258 259 261 263
12 12 12 12 13 13 13 12 12 11 11 11 10 9 7 5 2 359 356 354 353 351 350 347 346 345 343 341 339 339 339 339 338 338 336 335 333 330 328 325 321 316 312 309 302 292 283 278 277 277 278 279 279 276 272 269 267 265 264 262 261 260 258 257 256 256 257 259 261
10 9 9 9 9 10 10 9 8 7 7 7 7 7 6 4 1 358 354 352 349 347 345 343 340 338 337 335 335 335 335 335 335 336 335 333 331 329 327 324 321 318 316 315 313 307 298 289 283 280 279 278 279 278 275 270 267 264 262 261 260 259 257 255 254 255 256 258 259
8 7 7 6 6 6 6 5 4 4 3 4 4 4 3 1 359 356 353 349 346 343 341 340 337 335 333 332 332 331 331 331 332 332 331 330 328 326 325 324 321 319 318 317 317 314 309 302 294 288 284 282 281 280 279 275 270 266 262 260 258 257 256 254 254 254 255 257 258
7 6 5 4 4 3 2 2 1 0 0 360 360 359 358 357 354 352 350 348 344 341 339 338 336 333 332 330 330 329 328 327 327 327 327 326 325 323 323 322 320 319 318 317 317 315 313 308 302 295 290 286 284 283 281 279 276 271 266 262 259 257 255 254 254 255 256 257 257
7 5 4 3 2 1 0 359 359 358 357 357 356 355 354 352 350 349 348 346 344 341 339 337 335 333 331 329 327 326 324 323 323 322 322 322 321 320 320 319 318 318 318 317 315 313 311 309 305 301 295 291 288 285 282 280 278 275 271 267 263 260 258 256 256 256 256 257 257
6 5 4 3 1 360 359 358 357 356 355 354 353 352 351 349 348 346 345 343 341 338 336 335 333 330 328 327 325 323 321 320 319 318 317 317 317 317 316 315 315 317 318 317 315 312 310 308 306 304 301 298 295 291 287 283 279 276 274 271 268 266 263 261 259 258 257 257 256
5 4 3 2 1 359 357 356 355 354 353 352 350 349 348 347 346 344 342 340 337 335 333 332 330 328 326 324 323 321 319 317 316 315 315 314 314 313 312 311 312 314 316 316 315 313 310 308 306 306 305 303 300 297 293 290 284 279 275 273 271 270 268 266 263 260 258 256 254
4 3 2 1 359 358 357 355 354 353 351 350 348 346 345 344 343 341 340 337 335 333 331 329 328 326 325 323 321 319 317 316 315 314 313 312 311 310 309 308 309 311 313 315 315 313 311 308 306 305 305 304 302 299 297 294 289 283 279 275 272 270 269 268 265 262 259 255 252
3 2 0 359 358 356 355 354 353 351 350 348 346 345 343 341 340 339 338 337 334 331 329 327 326 324 322 321 319 316 315 314 313 312 311 310 309 308 306 306 306 308 310 312 313 313 311 308 306 305 305 304 302 300 297 293 289 285 281 277 274 271 270 268 265 262 258 254 251
1 1 359 358 356 355 354 353 351 350 348 346 344 343 341 340 338 337 337 336 333 330 327 325 323 322 320 319 316 315 313 314 313 311 310 309 308 306 304 304 303 305 307 309 310 311 310 309 306 304 304 303 301 298 295 291 288 284 281 278 275 273 270 267 264 261 258 254 250
1 359 358 357 355 353 352 351 350 348 346 344 342 341 340 339 337 335 334 333 331 328 325 323 321 319 318 317 316 314 313 313 313 311 310 308 307 306 304 302 301 302 305 306 307 308 308 308 306 304 303 301 299 296 292 288 285 282 279 276 274 272 269 266 263 260 257 254 250
360 359 357 355 354 352 350 349 348 347 345 343 342 340 339 337 334 333 332 331 330 328 325 322 319 317 317 316 315 313 312 312 311 311 310 308 308 307 305 302 301 301 303 304 304 305 306 306 306 305 302 300 297 294 290 286 283 280 277 274 271 268 266 264 261 259 256 253 250
359 358 356 354 353 351 349 348 346 345 344 343 341 339 337 335 333 333 332 331 330 328 325 321 318 317 316 315 313 311 310 309 309 309 309 309 308 307 305 303 302 301 302 303 303 303 303 304 305 304 301 298 296 293 289 285 281 278 274 271 268 265 263 262 260 258 255 252 249
Height
725 726 726 727 728 729 729 730 730 731 732 733 734 734 735 736 736 736 736 737 738 739 740 741 743 744 746 747 749 750 751 752 754 755 756 757 758 759 760 761 762 762 763 763 764 764 765 765 766 767 767 768 768 769 769 770 770 771 771 771 771 771 771 771 771 771 771 771 771
725 726 726 726 727 728 728 729 730 730 731 732 733 734 735 737 738 738 739 739 739 739 739 741 742 744 745 746 748 749 751 752 753 754 755 756 757 758 759 760 761 761 762 762 763 763 763 764 764 765 765 766 766 767 768 768 769 769 770 769 769 769 769 769 769 769 769 770 770
725 725 725 726 726 727 728 729 729 730 731 732 732 734 736 738 740 741 742 741 740 740 740 740 741 743 744 746 747 749 750 751 752 753 754 755 756 757 758 758 759 760 760 761 761 761 762 762 763 763 763 764 764 765 766 766 767 768 769 769 768 768 768 768 768 768 768 769 770
726 726 726 726 726 728 729 729 729 729 730 732 733 734 736 738 740 741 742 742 742 742 742 742 742 743 744 745 746 748 749 750 751 752 753 754 755 755 756 757 757 758 758 759 759 759 760 760 761 761 761 761 762 763 764 765 765 766 767 767 767 767 767 767 768 768 768 768 768
727 727 726 726 727 728 729 729 729 730 731 732 733 735 736 739 740 741 742 742 743 744 744 745 745 746 746 746 747 748 749 750 751 751 752 753 754 754 755 755 756 756 756 757 757 758 758 759 759 759 759 759 760 761 762 763 763 764 764 765 766 766 766 767 767 767 766 766 766
728 728 728 728 729 729 730 730 730 731 732 732 733 735 736 738 739 740 741 742 743 744 745 746 746 747 749 749 750 750 750 751 751 752 753 753 753 754 754 754 755 755 755 756 756 756 757 758 758 759 760 761 761 761 761 761 761 762 763 764 764 765 765 766 766 766 765 764 764
729 729 729 729 729 730 731 731 732 732 732 733 733 735 736 738 739 740 741 742 743 744 744 745 746 747 748 750 751 751 751 752 752 753 753 753 753 754 754 755 755 756 756 756 756 756 756 757 758 759 761 761 761 761 760 760 760 761 761 762 763 763 763 764 764 764 763 762 763
730 730 731 730 730 731 731 732 732 732 733 733 734 736 737 738 740 741 742 743 743 743 744 744 745 746 747 749 750 751 751 752 752 752 752 753 753 753 753 754 754 755 755 755 755 755 755 756 757 758 759 759 760 759 759 759 759 759 759 760 760 760 760 761 762 761 761 761 762
731 732 732 732 732 733 733 733 732 733 734 735 736 737 738 739 741 742 742 743 743 743 743 743 744 745 746 747 748 749 749 750 750 750 751 751 751 752 752 753 753 753 753 753 754 754 754 755 755 756 757 758 758 757 757 757 757 757 757 757 757 757 757 758 758 759 759 760 761
734 734 735 735 735 736 737 736 735 736 736 737 738 739 740 741 741 742 742 743 742 742 743 743 744 744 745 745 746 746 747 747 747 747 748 749 750 751 751 752 752 752 752 752 753 754 754 754 754 755 755 756 756 756 756 756 756 756 755 755 755 755 755 755 755 756 756 757 758
737 738 738 738 739 739 740 739 739 739 739 740 740 741 741 742 742 743 743 743 743 743 743 743 744 744 744 745 745 745 745 745 746 746 746 747 748 749 750 751 751 751 752 753 753 753 753 753 753 753 754 754 754 754 754 754 754 754 753 753 753 753 752 752 753 753 754 755 756
740 741 741 741 741 741 741 741 741 741 741 742 743 743 743 743 743 743 743 743 743 743 743 743 743 744 744 744 744 744 745 745 745 746 746 747 747 748 749 750 750 751 752 753 753 753 753 752 752 752 752 752 752 752 753 753 753 753 752 752 751 751 751 751 751 752 752 753 754
743 743 743 743 743 742 742 742 743 743 743 744 744 744 744 744 743 743 743 743 742 742 742 742 743 743 743 743 744 744 744 744 745 745 746 746 747 747 748 749 749 750 751 752 752 753 753 752 752 751 751 751 751 751 752 752 752 752 751 751 751 750 750 750 750 751 751 752 753
744 744 744 744 744 744 743 744 744 744 745 745 745 745 744 744 744 743 743 742 742 742 742 742 742 742 743 743 743 743 744 744 745 745 746 746 746 747 747 748 748 749 750 750 751 751 751 751 751 751 750 750 750 750 750 751 751 750 750 750 749 749 749 749 749 750 750 751 751
745 745 745 744 744 744 744 745 745 746 746 745 745 745 744 744 743 743 742 742 741 741 741 742 742 742 742 743 743 743 744 744 745 745 745 746 746 747 747 747 748 748 748 749 749 749 750 750 750 749 749 749 749 749 749 749 749 749 748 748 748 748 748 748 748 749 749 749 749
746 746 746 745 745 745 746 746 746 746 746 745 745 744 744 743 743 742 742 742 741 741 741 742 742 742 742 742 743 743 743 744 744 744 745 745 745 746 746 746 747 747 747 747 747 748 748 748 748 748 748 747 747 747 747 747 747 747 746 746 746 746 746 746 747 747 748 748 748
747 747 747 747 747 747 747 747 747 746 746 745 744 744 743 743 742 742 742 741 741 741 741 741 741 742 742 742 743 743 743 743 744 744 744 744 744 745 745 745 745 745 746 746 746 746 746 746 746 746 746 745 745 745 745 745 745 745 745 744 744 744 744 745 745 745 746 746 746
748 748 748 748 748 748 748 748 747 747 746 745 744 744 743 743 742 742 742 741 741 741 741 741 741 741 741 742 742 743 743 743 743 743 743 743 743 743 744 744 744 744 744 744 744 744 744 744 744 744 744 743 743 743 743 743 743 743 743 743 743 743 743 743 743 744 744 743 743
750 750 749 749 749 749 748 748 747 747 746 745 745 744 744 743 743 742 742 741 741 741 741 741 741 741 741 741 741 742 742 743 743 742 742 742 742 742 742 742 742 743 743 743 743 743 742 742 742 742 742 741 741 741 740 741 741 741 741 741 741 741 741 741 742 742 742 741 741
751 751 750 750 750 749 749 748 748 747 747 746 745 745 744 744 743 743 742 742 741 741 741 741 741 741 741 741 741 741 741 741 741 741 741 741 741 741 741 741 741 741 741 741 741 741 741 741 740 740 739 739 739 738 738 738 738 739 739 739 739 740 740 740 740 740 740 740 740
752 752 751 751 751 750 749 749 749 748 747 747 746 746 745 744 744 743 743 742 742 742 741 741 741 741 741 741 741 741 741 741 741 741 740 740 740 740 740 739 739 739 739 739 739 739 739 739 738 738 738 737 737 736 736 736 736 736 737 737 737 738 738 738 738 738 738 738 738
753 753 752 752 751 751 750 750 749 749 748 747 747 746 746 745 744 744 744 743 742 742 741 741 741 741 740 740 740 740 740 740 740 740 740 740 739 739 739 738 738 738 738 737 737 737 737 737 737 737 736 736 735 735 735 734 734 734 734 735 735 736 736 736 736 736 736 736 736
754 754 753 752 752 751 751 750 749 749 748 748 747 746 746 745 745 744 744 743 743 742 742 741 741 741 740 740 740 740 739 739 739 739 739 738 738 737 737 737 737 736 736 736 736 736 736 736 736 735 735 735 734 734 733 733 733 733 733 733 733 733 733 734 734 734 734 734 734
755 754 754 753 752 752 751 750 750 749 749 748 748 747 746 746 745 744 744 743 743 742 742 741 741 741 740 740 740 739 739 739 738 738 737 737 736 736 735 735 735 735 735 735 735 735 735 735 734 734 734 733 733 732 732 731 731 731 731 731 731 731 731 731 731 732 732 732 732
756 755 754 754 753 752 751 751 750 750 749 749 748 747 747 746 745 745 744 743 743 742 742 742 741 741 740 740 740 739 739 739 738 737 736 736 735 735 735 734 734 734 734 734 734 734 734 734 733 733 732 731 731 731 730 730 730 729 729 729 729 729 729 729 729 730 730 730 730
757 756 755 755 754 753 752 752 751 751 750 749 749 748 747 747 746 746 745 744 744 743 743 742 741 741 741 740 740 739 739 739 738 737 736 736 735 734 734 734 733 733 733 733 733 733 733 733 732 731 731 730 729 729 728 728 728 728 728 727 728 728 727 727 727 727 728 728 728
757 757 756 755 755 754 753 752 752 751 750 749 749 748 748 747 747 746 746 745 745 744 744 743 742 742 741 741 740 740 739 738 738 737 736 735 735 734 733 733 733 732 732 732 731 731 731 731 730 730 729 729 728 727 727 726 726 726 726 726 726 726 726 725 725 725 725 726 726
757 757 756 756 755 754 753 753 752 751 750 749 749 748 748 747 747 746 746 746 745 744 744 743 743 742 742 741 740 740 739 738 737 736 736 735 734 733 733 732 732 731 731 730 730 729 729 728 728 728 727 727 726 726 725 725 724 724 724 724 724 724 724 723 723 723 723 724 724
756 756 755 755 754 754 753 753 752 751 751 750 749 749 748 748 747 746 746 745 745 744 744 743 743 742 742 741 740 740 739 738 737 736 735 734 733 733 732 731 731 730 729 729 728 728 727 726 726 726 725 725 725 724 724 723 722 722 722 722 721 721 721 721 721 721 721 721 722
755 754 754 754 753 753 753 752 752 752 751 751 750 749 749 748 747 747 746 745 745 744 744 743 743 742 741 741 740 739 738 737 737 736 735 734 733 732 731 730 730 729 728 727 727 726 726 725 725 724 724 723 723 722 722 721 721 720 720 720 719 719 719 719 719 719 719 719 720
754 754 753 752 752 751 751 751 751 751 751 750 750 749 749 748 748 747 746 746 745 744 744 743 742 741 741 740 739 739 738 737 736 735 735 734 733 731 730 729 728 727 727 726 725 725 724 724 723 723 722 722 721 721 720 719 719 719 718 718 717 717 717 717 717 717 717 718 718
755 754 753 752 751 750 750 750 749 749 749 748 748 748 748 747 747 747 746 745 745 744 743 742 741 741 740 739 738 738 737 736 735 735 734 733 732 731 730 729 727 726 726 725 724 724 723 722 722 721 721 720 720 719 718 718 717 717 716 716 716 715 715 715 715 715 716 716 716
757 756 755 754 752 751 750 749 749 748 747 747 746 746 746 745 745 744 744 744 743 743 742 741 741 740 739 738 738 737 736 735 735 734 733 732 731 730 729 728 726 726 725 724 723 722 721 721 720 720 719 719 718 717 717 716 716 715 715 714 714 714 714 714 714 714 714 714 714
760 759 757 756 755 754 753 751 750 749 748 747 746 746 745 745 744 743 743 742 742 741 741 741 740 739 739 738 737 736 735 734 734 733 732 731 730 729 728 727 726 725 724 723 722 721 720 719 719 718 718 717 716 716 715 714 714 713 713 712 712 712 712 712 712 712 712 712 712
760 760 759 758 757 756 755 754 753 752 751 750 749 748 747 746 745 744 743 742 742 741 740 740 739 739 738 737 736 736 735 733 732 732 731 730 729 728 727 725 724 724 723 722 721 720 719 718 717 717 716 716 715 714 714 713 712 711 711 710 710 710 710 710 710 710 710 710 710
760 759 759 758 757 757 756 755 754 753 752 751 750 749 749 748 747 746 745 744 742 741 740 739 739 738 737 736 735 734 734 732 731 730 729 729 728 727 725 724 723 722 721 721 720 719 718 717 716 715 715 714 714 713 712 711 711 710 709 708 708 707 707 708 708 708 708 708 708
760 759 759 758 757 756 756 755 754 753 752 752 751 750 749 748 747 746 745 744 743 741 740 739 738 737 736 735 734 733 732 731 730 729 728 727 727 726 724 722 721 720 720 719 719 718 717 716 715 714 714 713 712 711 711 710 709 708 707 706 706 705 705 706 706 706 706 706 706
760 759 758 757 757 756 755 755 754 753 752 751 751 750 749 748 747 746 745 744 743 741 740 738 737 736 735 734 733 731 730 730 729 728 727 726 725 724 723 721 720 719 718 718 717 716 716 715 714 713 713 712 711 711 710 709 708 707 706 705 704 704 703 704 704 704 704 704 704
759 758 758 757 756 755 754 754 753 752 752 751 750 749 748 747 746 745 744 744 743 741 740 738 737 735 734 733 732 730 729 728 727 727 726 725 724 723 722 720 718 717 716 716 716 715 714 714 713 712 712 711 711 710 709 708 706 705 704 704 703 702 702 702 702 702 702 702 702
758 757 757 756 755 754 753 752 752 751 751 750 749 748 747 746 745 744 743 742 741 740 739 738 736 735 734 733 731 729 727 726 725 725 724 723 722 721 720 719 717 715 715 714 714 714 713 712 711 711 711 710 709 708 708 706 705 704 703 702 701 701 700 700 700 700 700 700 700
757 756 756 755 754 753 752 751 751 750 749 749 748 747 746 745 744 743 742 741 740 739 738 737 735 734 733 732 731 729 727 725 724 723 723 722 720 719 718 717 716 714 713 712 712 712 711 711 710 710 709 709 708 707 706 705 704 703 701 701 700 700 699 699 698 698 698 698 699